Volver al catálogo

COSMOS 2444

GLONASS

ActivoNavegaciónMEO
NORAD 33380·PAYLOAD·🇷🇺 Russia

Lanzado Sep 25, 2008 desde Baikonur Cosmodrome

Loading…

Próximos Pases (próximas 24 horas)

TLE

EnvejeciendoSource: Space-Track

Época: Aug 30, 2026, 00:42 UTC

1 33380U 08046C   26242.02973212 -.00000023  00000-0  00000+0 0  9992
2 33380  65.4368 312.5353 0018694 288.3477  69.2646  2.13112216139511

Sigue COSMOS 2444 en tiempo real con AllMySat

Download on the App Store